Regional Weather Roundup
Issued by NWS

Home | Current Version | Previous Version | Graphics & Text | Print | Product List | Glossary On
Versions: 1 2 3 4 5 6 7 8 9 10 11 12 13 14 15 16 17 18 19 20 21 22 23 24 25 26 27 28 29 30 31 32 33 34 35 36 37 38 39 40 41 42 43 44 45 46 47 48 49 50
126
ASUS44 KJAN 270010
RWRMS

MISSISSIPPI HOURLY WEATHER ROUNDUP
NATIONAL WEATHER SERVICE JACKSON MS
700 PM CDT TUE AUG 26 2014

NOTE: "FAIR: INDICATES FEW OR NO CLOUDS BELOW 12,000 FEET WITH NO
SIGNIFICANT WEATHER AND/OR OBSTRUCTIONS TO VISIBILITY.

MSZ001>002-007>008-010>013-018>021-025>028-034>036-270100-
NORTHWEST MISSISSIPPI

CITY           SKY/WX    TMP DP  RH WIND       PRES   REMARKS
CLARKSDALE     FAIR      84  72  65 CALM      30.03S
CLEVELAND      FAIR      86  68  54 E5        30.01R
GREENWOOD      CLEAR     85  66  53 N7        30.00S
6HR MIN TEMP:  85; 6HR MAX TEMP:  92;

GREENVILLE     CLEAR     85  66  53 E5        30.00R
6HR MIN TEMP:  85; 6HR MAX TEMP:  92;

GRENADA        FAIR      84  63  48 E8        30.03R
OLIVE BRANCH   PTCLDY    86  73  66 E6        30.04R HX  93
OXFORD         FAIR      84  64  51 CALM      30.06R
TUNICA         DRIZZLE   86  72  62 E3        30.03R HX  92
$$

MSZ003>006-009-014>017-022>024-029>033-037>039-270100-
NORTHEAST MISSISSIPPI

CITY           SKY/WX    TMP DP  RH WIND       PRES   REMARKS
BELMONT        FAIR      78  70  74 CALM      30.05F
COLUMBUS AFB   CLEAR     85  65  51 N8        30.01S
6HR MIN TEMP:  85; 6HR MAX TEMP:  91;

CORINTH        FAIR      82  70  65 SE3       30.04S
GOLDN TRIANGLE PTCLDY    88  64  45 N9        30.02R
STARKVILLE     FAIR      86  63  45 N6        30.01R
TUPELO         CLEAR     83  66  56 NE6       30.03S
6HR MIN TEMP:  83; 6HR MAX TEMP:  88;

$$

MSZ040-058-270100-
CENTRAL MISSISSIPPI

CITY           SKY/WX    TMP DP  RH WIND       PRES   REMARKS
JACKSON INTL   PTCLDY    87  61  41 E6        30.00R
6HR MIN TEMP:  87; 6HR MAX TEMP:  92;

JACKSON HAWKNS PTCLDY    87  60  40 SE8       30.00R
6HR MIN TEMP:  87; 6HR MAX TEMP:  91;

MERIDIAN KEY   CLEAR     86  59  39 E7        29.99F
6HR MIN TEMP:  86; 6HR MAX TEMP:  92;

MERIDIAN NAS   CLEAR     86  60  41 CALM      30.00S
6HR MIN TEMP:  86; 6HR MAX TEMP:  92;

RAYMOND        FAIR      86  81  84 E5        29.99R HX 102
VICKSBURG      CLEAR     86  63  45 NE5       29.98S
6HR MIN TEMP:  86; 6HR MAX TEMP:  92;

$$

MSZ059>079-270100-
SOUTH MISSISSIPPI

CITY           SKY/WX    TMP DP  RH WIND       PRES   REMARKS
BROOKHAVEN     FAIR      82  64  54 CALM      30.01R
COLUMBIA       FAIR      82  70  65 MISG      29.97R
HATTIESBURG    PTCLDY    88  64  44 E6        29.98S
6HR MIN TEMP:  88; 6HR MAX TEMP:  93;

MCCOMB         MOCLDY    85  63  47 CALM      29.98S
6HR MIN TEMP:  85; 6HR MAX TEMP:  90;

NATCHEZ        MOCLDY    82  68  61 NE3       29.99R
6HR MIN TEMP:  82; 6HR MAX TEMP:  88;

PINE BELT      PTCLDY    84  61  45 NE3       30.00S
6HR MIN TEMP:  84; 6HR MAX TEMP:  91;

$$

MSZ080>082-270100-
COASTAL MISSISSIPPI

CITY           SKY/WX    TMP DP  RH WIND       PRES   REMARKS
BAY ST LOUIS   CLEAR    N/A N/A N/A SE3       29.97R
BILOXI         MOCLDY    85  73  66 VRB6      29.96S HX  91
6HR MIN TEMP:  85; 6HR MAX TEMP:  91;

PASCAGOULA     MOCLDY    83  73  72 SE6       29.97R
6HR MIN TEMP:  83; 6HR MAX TEMP:  92;

GULFPORT       MOCLDY    85  73  67 SE8       29.96R HX  91
6HR MIN TEMP:  84; 6HR MAX TEMP:  89;

$$



USA.gov is the U.S. government's official web portal to all federal, state and local government web resources and services.